DW0331 Weather Reports


time (UTC)temp
C
wind
direction
speed
KPH
gust
KPH
rain 1hr
cm
rain 24hr
cm
rain mn
cm
humidity
%
barometer
mb
20260505092006 15 205 6.4 24.1 0.00 0.00 0.00 77 998.8
20260505091005 15 207 9.7 25.7 0.00 0.00 0.00 75 999.0
20260505090005 15 209 12.9 32.2 0.00 0.00 0.00 76 999.0
20260505085005 15 206 14.5 29.0 0.00 0.00 0.00 75 999.1
20260505084005 15 208 14.5 25.7 0.00 0.00 0.00 74 999.2
20260505083006 15 208 16.1 32.2 0.00 0.00 0.00 73 999.3
20260505082005 15 205 12.9 32.2 0.00 0.00 0.00 73 999.4
20260505081005 15 206 17.7 30.6 0.00 0.00 0.00 72 999.4
20260505080005 15 202 19.3 25.7 0.00 0.00 0.00 73 999.5
20260505075005 14 201 17.7 25.7 0.00 0.00 0.00 73 999.5
20260505074005 14 203 4.8 24.1 0.00 0.00 0.00 74 999.6
20260505073005 13 208 3.2 25.7 0.00 0.00 0.00 73 999.5
20260505072006 13 208 1.6 16.1 0.00 0.00 0.00 72 999.6
20260505071005 13 203 4.8 17.7 0.00 0.00 0.00 71 999.6
20260505070005 13 204 3.2 20.9 0.00 0.00 0.00 71 999.4
20260505065005 13 203 9.7 25.7 0.00 0.00 0.00 69 999.4
20260505064005 12 0 0.0 3.2 0.00 0.00 0.00 73 999.5
20260505062005 12 0 0.0 9.7 0.00 0.00 0.00 72 999.5
20260505061006 12 0 0.0 1.6 0.00 0.00 0.00 74 999.4
20260505053005 11 0 0.0 3.2 0.00 0.00 0.00 76 999.9
20260505052006 11 0 0.0 8.0 0.00 0.03 0.00 77 999.8
20260505051005 11 0 0.0 6.4 0.00 0.05 0.00 77 999.9
20260505041006 12 0 0.0 0.0 0.00 0.13 0.00 75 1000.4
20260505040006 12 0 0.0 1.6 0.00 0.13 0.00 73 1000.5
20260505035005 12 0 0.0 6.4 0.00 0.13 0.13 74 1000.5
20260505034005 12 0 0.0 6.4 0.00 0.13 0.13 72 1000.5
20260505033005 12 0 0.0 0.0 0.00 0.13 0.13 70 1000.6
20260505032005 13 0 0.0 0.0 0.00 0.13 0.13 72 1000.6
20260505031005 13 194 1.6 9.7 0.00 0.13 0.13 70 1000.6
20260505030005 13 0 0.0 8.0 0.00 0.13 0.13 70 1000.7
20260505025005 13 0 0.0 0.0 0.00 0.13 0.13 73 1000.8
20260505024005 13 0 0.0 0.0 0.00 0.13 0.13 73 1000.9
20260505023006 13 0 0.0 1.6 0.00 0.13 0.13 69 1000.9
20260505022005 13 0 0.0 3.2 0.00 0.13 0.13 71 1000.9
20260505021005 13 0 0.0 3.2 0.00 0.13 0.13 69 1000.8
20260505020005 14 0 0.0 3.2 0.00 0.13 0.13 69 1000.9
20260505015005 14 0 0.0 0.0 0.00 0.13 0.13 67 1000.9
20260505013005 15 0 0.0 3.2 0.00 0.13 0.13 66 1001.1
20260505011005 15 0 0.0 17.7 0.00 0.13 0.13 67 1001.1
20260505010005 15 202 1.6 9.7 0.00 0.13 0.13 67 1001.2
20260505005005 15 0 0.0 9.7 0.00 0.13 0.13 64 1001.1
20260505004004 16 0 0.0 9.7 0.00 0.13 0.13 64 1001.2
20260505003005 16 0 0.0 11.3 0.00 0.13 0.13 64 1001.2
20260505002006 16 0 0.0 11.3 0.00 0.13 0.13 64 1001.1
20260505001005 16 208 1.6 11.3 0.00 0.13 0.13 64 1001.0
20260505000005 16 205 3.2 16.1 0.00 0.13 0.13 61 1000.9
20260504235005 16 203 1.6 14.5 0.00 0.13 0.13 61 1000.8
20260504233005 17 0 0.0 1.6 0.00 0.13 0.13 61 1000.7
20260504231005 17 213 6.4 22.5 0.00 0.13 0.13 59 1000.7
20260504230006 17 209 9.7 22.5 0.00 0.13 0.13 59 1000.8
20260504225005 17 206 6.4 22.5 0.00 0.13 0.13 61 1000.8
20260504224005 17 204 16.1 24.1 0.00 0.13 0.13 58 1000.8
20260504223005 18 205 9.7 32.2 0.00 0.13 0.13 56 1000.8
20260504221005 18 208 16.1 27.4 0.00 0.13 0.13 57 1001.0
20260504220005 18 205 17.7 29.0 0.00 0.13 0.13 58 1001.1
20260504215006 18 209 19.3 35.4 0.00 0.13 0.13 56 1001.1
20260504214005 18 212 17.7 37.0 0.00 0.13 0.13 55 1001.1
20260504213005 18 213 20.9 40.2 0.00 0.13 0.13 56 1001.1
20260504212005 18 211 17.7 40.2 0.00 0.13 0.13 55 1001.0
20260504211005 18 212 22.5 35.4 0.00 0.13 0.13 55 1001.0
20260504210005 18 207 25.7 41.8 0.00 0.13 0.13 57 1001.1
20260504205006 18 208 24.1 49.9 0.00 0.13 0.13 55 1001.3
20260504204005 18 206 20.9 37.0 0.00 0.13 0.13 56 1001.3
20260504203005 18 211 19.3 38.6 0.00 0.13 0.13 57 1001.4
20260504202005 17 212 22.5 37.0 0.00 0.13 0.13 56 1001.5
20260504201005 17 207 25.7 45.1 0.00 0.13 0.13 56 1001.4
20260504200005 17 209 24.1 40.2 0.00 0.13 0.13 56 1001.7
20260504194005 17 207 25.7 45.1 0.00 0.13 0.13 56 1001.8
20260504193004 17 210 24.1 40.2 0.00 0.13 0.13 58 1002.0
20260504192005 17 207 27.4 41.8 0.00 0.13 0.13 56 1002.0
20260504191005 17 205 27.4 40.2 0.00 0.13 0.13 58 1002.2
20260504190005 17 210 27.4 41.8 0.00 0.13 0.13 57 1002.2
20260504185005 17 212 22.5 45.1 0.00 0.13 0.13 57 1002.2
20260504184005 17 215 24.1 38.6 0.00 0.13 0.13 56 1002.3
20260504183005 17 209 27.4 43.5 0.00 0.13 0.13 57 1002.3
20260504182004 16 206 29.0 46.7 0.00 0.13 0.13 57 1002.4
20260504180005 16 205 30.6 41.8 0.00 0.13 0.13 60 1002.5
20260504175005 16 204 30.6 43.5 0.00 0.13 0.13 59 1002.7
20260504174005 16 205 25.7 41.8 0.00 0.13 0.13 59 1002.7
20260504173006 16 205 30.6 45.1 0.00 0.13 0.13 60 1002.8
20260504172005 16 204 27.4 43.5 0.00 0.13 0.13 60 1002.9
20260504171004 16 206 25.7 35.4 0.00 0.13 0.13 61 1002.9
20260504151005 14 214 11.3 27.4 0.00 0.13 0.13 65 1003.7
20260504141005 13 208 17.7 30.6 0.00 0.13 0.13 67 1003.7